DW1512 Weather Reports


Display with metric or nautical units.
time (UTC)temp
F
wind
direction
speed
MPH
gust
MPH
rain 1hr
in
rain 24hr
in
rain mn
in
humidity
%
barometer
mb
20190119083700 51 90 1.0 3.0 0.00 0.00 0.00 64 1021.6
20190119083200 49 90 2.0 3.0 0.00 0.00 0.00 69 1021.4
20190119082659 47 90 2.0 6.0 0.00 0.00 0.00 74 1021.5
20190119082200 46 100 2.0 6.0 0.00 0.00 0.00 74 1021.5
20190119081700 46 90 3.0 6.0 0.00 0.00 0.00 78 1021.8
20190119081200 45 72 2.0 3.0 0.00 0.00 0.00 79 1022.9
20190119080701 45 45 1.0 3.0 0.00 0.00 0.00 80 1023.9
20190119080204 45 45 1.0 5.0 0.00 0.00 0.00 82 1024.8
20190119075700 45 45 1.0 6.0 0.00 0.00 0.00 86 1025.6
20190119075200 45 45 2.0 6.0 0.00 0.00 0.00 93 1026.6
20190119074701 45 45 3.0 6.0 0.00 0.00 0.00 98 1027.4
20190119074200 43 19 2.0 5.0 0.00 0.00 0.00 98 1028.0
20190119073700 43 12 1.0 3.0 0.00 0.00 0.00 98 1028.3
20190119073201 43 90 2.0 3.0 0.00 0.00 0.00 98 1028.4
20190119072700 42 225 1.0 3.0 0.00 0.00 0.00 97 1028.3
20190119072200 41 225 1.0 2.0 0.00 0.00 0.00 97 1028.3
20190119071700 40 225 0.0 1.0 0.00 0.00 0.00 97 1028.3
20190119071201 40 225 0.0 1.0 0.00 0.00 0.00 97 1028.5
20190119070700 41 225 0.0 1.0 0.00 0.00 0.00 97 1028.4
20190119070159 41 225 0.0 0.0 0.00 0.00 0.00 97 1028.5
20190119065701 39 225 0.0 0.0 0.00 0.00 0.00 97 1028.3
20190119065201 36 225 0.0 1.0 0.00 0.00 0.00 97 1028.3
20190119064701 35 225 0.0 1.0 0.00 0.00 0.00 98 1028.3
20190119064200 35 225 1.0 1.0 0.00 0.00 0.00 98 1028.2
20190119063700 34 225 0.0 0.0 0.00 0.00 0.00 98 1028.3
20190119063201 33 225 0.0 0.0 0.00 0.00 0.00 98 1028.5
20190119062700 32 225 0.0 0.0 0.00 0.00 0.00 98 1028.7
20190119062201 32 225 0.0 0.0 0.00 0.00 0.00 98 1028.8
20190119061700 31 225 0.0 0.0 0.00 0.00 0.00 98 1028.9
20190119061200 31 225 0.0 0.0 0.00 0.00 0.00 98 1029.3
20190119060701 31 225 0.0 0.0 0.00 0.00 0.00 98 1029.4
20190119060200 32 225 0.0 0.0 0.00 0.00 0.00 98 1029.3
20190119055701 32 225 0.0 0.0 0.00 0.00 0.00 98 1029.1
20190119055200 32 225 0.0 0.0 0.00 0.00 0.00 98 1029.1
20190119054701 32 225 0.0 0.0 0.00 0.00 0.00 98 1028.8
20190119054200 32 225 0.0 0.0 0.00 0.00 0.00 98 1028.6
20190119053700 32 225 0.0 0.0 0.00 0.00 0.00 98 1028.3
20190119053200 32 225 0.0 0.0 0.00 0.00 0.00 98 1027.9
20190119052703 32 225 0.0 0.0 0.00 0.00 0.00 98 1027.5
20190119052200 32 225 0.0 0.0 0.00 0.00 0.00 98 1027.2
20190119051701 32 225 0.0 0.0 0.00 0.00 0.00 98 1026.9
20190119051200 32 225 0.0 0.0 0.00 0.00 0.00 98 1026.9
20190119050701 32 225 0.0 0.0 0.00 0.00 0.00 98 1027.0
20190119050201 32 225 0.0 1.0 0.00 0.00 0.00 98 1027.0
20190119045701 32 225 0.0 1.0 0.00 0.00 0.00 98 1027.0
20190119045201 33 225 0.0 1.0 0.00 0.00 0.00 98 1026.9
20190119044700 33 225 0.0 0.0 0.00 0.00 0.00 98 1026.8
20190119044200 33 225 0.0 0.0 0.00 0.00 0.00 98 1026.6
20190119043701 33 225 0.0 1.0 0.00 0.00 0.00 98 1026.5
20190119043201 33 225 0.0 1.0 0.00 0.00 0.00 98 1026.4
20190119042701 33 225 0.0 1.0 0.00 0.00 0.00 98 1026.4
20190119042201 33 225 0.0 0.0 0.00 0.00 0.00 98 1026.4
20190119041659 33 225 0.0 0.0 0.00 0.00 0.00 98 1026.3
20190119041200 33 225 0.0 0.0 0.00 0.00 0.00 98 1026.3
20190119040700 33 225 0.0 0.0 0.00 0.00 0.00 98 1026.2
20190119040201 33 225 0.0 0.0 0.00 0.00 0.00 98 1026.3
20190119035701 33 225 0.0 0.0 0.00 0.00 0.00 98 1026.1
20190119035200 33 225 0.0 1.0 0.00 0.00 0.00 98 1026.1
20190119034700 33 225 0.0 1.0 0.00 0.00 0.00 98 1026.2
20190119034201 33 225 0.0 0.0 0.00 0.00 0.00 98 1026.1
20190119033702 33 225 0.0 0.0 0.00 0.00 0.00 98 1026.1
20190119033201 33 225 0.0 0.0 0.00 0.00 0.00 98 1026.0
20190119032701 33 225 0.0 0.0 0.00 0.00 0.00 98 1025.8
20190119032200 33 225 0.0 0.0 0.00 0.00 0.00 98 1025.8
20190119031701 33 225 0.0 0.0 0.00 0.00 0.00 98 1025.7
20190119031202 33 225 0.0 0.0 0.00 0.00 0.00 98 1025.7
20190119030701 33 225 0.0 0.0 0.00 0.00 0.00 98 1025.7
20190119030202 33 225 0.0 0.0 0.00 0.00 0.00 98 1025.6
20190119025701 32 225 0.0 0.0 0.00 0.00 0.00 98 1025.7
20190119025201 32 225 0.0 0.0 0.00 0.00 0.00 98 1025.8
20190119024701 32 225 0.0 0.0 0.00 0.00 0.00 98 1026.0
20190119024201 32 225 0.0 0.0 0.00 0.00 0.00 98 1026.2
20190119023701 32 225 0.0 0.0 0.00 0.00 0.00 98 1026.1
20190119023201 32 225 0.0 0.0 0.00 0.00 0.00 98 1026.1
20190119022701 32 225 0.0 0.0 0.00 0.00 0.00 98 1026.1
20190119022201 32 225 0.0 0.0 0.00 0.00 0.00 98 1026.1
20190119021700 31 225 0.0 0.0 0.00 0.00 0.00 98 1026.0
20190119021200 31 225 0.0 0.0 0.00 0.00 0.00 98 1026.0
20190119020700 31 225 0.0 0.0 0.00 0.00 0.00 98 1025.9
20190119020201 31 225 0.0 0.0 0.00 0.00 0.00 98 1026.0
20190119015701 31 225 0.0 0.0 0.00 0.00 0.00 98 1026.0
20190119015201 31 225 0.0 0.0 0.00 0.00 0.00 98 1026.0
20190119014704 31 225 0.0 0.0 0.00 0.00 0.00 98 1026.1
20190119014201 31 225 0.0 0.0 0.00 0.00 0.00 98 1026.1
20190119013700 31 225 0.0 0.0 0.00 0.00 0.00 98 1026.1
20190119013201 30 225 0.0 0.0 0.00 0.00 0.00 98 1026.0
20190119012701 30 225 0.0 0.0 0.00 0.00 0.00 98 1025.9
20190119012202 30 225 0.0 0.0 0.00 0.00 0.00 97 1025.8
20190119011701 30 225 0.0 0.0 0.00 0.00 0.00 97 1025.8
20190119011200 30 225 0.0 0.0 0.00 0.00 0.00 98 1025.8
20190119010701 30 225 0.0 0.0 0.00 0.00 0.00 98 1025.7
20190119010201 30 225 0.0 0.0 0.00 0.00 0.00 97 1025.6
20190119005700 30 225 0.0 0.0 0.00 0.00 0.00 97 1025.4
20190119005201 30 225 0.0 0.0 0.00 0.00 0.00 97 1025.3
20190119004701 30 225 0.0 0.0 0.00 0.00 0.00 97 1025.3
20190119004201 30 225 0.0 0.0 0.00 0.00 0.00 97 1025.3
20190118230201 35 0 0.0 1.0 0.00 0.00 0.00 94 1022.7
20190118225701 36 0 0.0 1.0 0.00 0.00 0.00 94 1022.8
20190118225201 36 0 0.0 1.0 0.00 0.00 0.00 93 1022.8
20190118224701 36 0 0.0 1.0 0.00 0.00 0.00 93 1022.8
20190118224201 36 0 0.0 1.0 0.00 0.00 0.00 93 1022.7
20190118223701 37 0 0.0 1.0 0.00 0.00 0.00 93 1022.6
20190118223202 37 0 0.0 1.0 0.00 0.00 0.00 93 1022.8
20190118222701 38 0 0.0 5.0 0.00 0.00 0.00 97 1022.9
20190118222201 38 0 0.0 5.0 0.00 0.00 0.00 97 1022.9
20190118221701 38 75 2.0 5.0 0.00 0.00 0.00 97 1022.9
20190118221201 38 0 1.0 2.0 0.00 0.00 0.00 97 1022.9
20190118220701 38 0 1.0 2.0 0.00 0.00 0.00 96 1023.0
20190118220201 37 90 0.0 3.0 0.00 0.00 0.00 96 1022.9
20190118215701 38 90 0.0 3.0 0.00 0.00 0.00 96 1023.0
20190118215201 38 47 1.0 3.0 0.00 0.00 0.00 96 1023.0
20190118214701 39 55 1.0 3.0 0.00 0.00 0.00 96 1023.2
20190118214201 39 101 0.0 2.0 0.00 0.00 0.00 95 1023.5
20190118213701 38 115 1.0 2.0 0.00 0.00 0.00 95 1023.8
20190118213201 38 135 1.0 2.0 0.00 0.00 0.00 95 1024.0
20190118212701 38 330 1.0 2.0 0.00 0.00 0.00 94 1024.3
20190118212201 38 0 0.0 1.0 0.00 0.00 0.00 94 1024.6
20190118211701 39 45 1.0 1.0 0.00 0.00 0.00 94 1024.8
20190118211201 39 339 1.0 1.0 0.00 0.00 0.00 94 1024.9
20190118210701 38 257 0.0 3.0 0.00 0.00 0.00 93 1024.7
20190118210201 38 180 0.0 3.0 0.00 0.00 0.00 93 1024.6
20190118205701 38 152 0.0 3.0 0.00 0.00 0.00 93 1024.4
20190118205205 39 135 0.0 1.0 0.00 0.00 0.00 93 1024.3
20190118204701 39 90 0.0 1.0 0.00 0.00 0.00 92 1024.1
20190118204202 40 112 0.0 3.0 0.00 0.00 0.00 91 1024.0
20190118203701 40 45 1.0 3.0 0.00 0.00 0.00 91 1023.8
20190118203201 41 31 1.0 3.0 0.00 0.00 0.00 91 1023.8
20190118202701 41 0 1.0 5.0 0.00 0.00 0.00 90 1023.5
20190118202202 41 24 1.0 5.0 0.00 0.00 0.00 90 1023.5
20190118201701 41 315 2.0 5.0 0.00 0.00 0.00 89 1023.4
20190118201201 41 0 1.0 3.0 0.00 0.00 0.00 88 1023.4
20190118200702 41 350 0.0 3.0 0.00 0.00 0.00 88 1023.3
20190118200201 41 22 0.0 2.0 0.00 0.00 0.00 87 1023.1
20190118195702 41 45 1.0 2.0 0.00 0.00 0.00 87 1022.9
20190118195201 42 346 1.0 2.0 0.00 0.00 0.00 88 1022.8
20190118194701 42 90 0.0 3.0 0.00 0.00 0.00 88 1022.7
20190118194201 42 90 1.0 3.0 0.00 0.00 0.00 88 1022.5
20190118193701 43 90 1.0 3.0 0.00 0.00 0.00 87 1022.2
20190118193202 43 90 2.0 3.0 0.00 0.00 0.00 88 1022.1
20190118192701 43 90 2.0 3.0 0.00 0.00 0.00 88 1021.8
20190118192201 42 90 2.0 3.0 0.00 0.00 0.00 87 1021.7
20190118191700 42 90 1.0 3.0 0.00 0.00 0.00 87 1021.5
20190118191201 43 90 1.0 2.0 0.00 0.00 0.00 87 1021.4
20190118190701 43 180 0.0 5.0 0.00 0.00 0.00 87 1021.1
20190118190201 42 135 1.0 5.0 0.00 0.00 0.00 86 1021.0
20190118185702 42 90 2.0 3.0 0.00 0.00 0.00 85 1021.0
20190118185202 43 90 1.0 3.0 0.00 0.00 0.00 83 1021.1
20190118184702 43 90 1.0 3.0 0.00 0.00 0.00 82 1021.2
20190118184201 43 90 1.0 3.0 0.00 0.00 0.00 81 1021.2
20190118183702 43 90 2.0 3.0 0.00 0.00 0.00 80 1021.0
20190118183211 44 90 2.0 3.0 0.00 0.00 0.00 79 1021.1
20190118182703 44 90 1.0 3.0 0.00 0.00 0.00 77 1020.8
20190118182202 44 135 1.0 3.0 0.00 0.00 0.00 76 1020.8
20190118181701 45 180 1.0 3.0 0.00 0.00 0.00 74 1020.5
20190118181201 45 180 1.0 5.0 0.00 0.00 0.00 74 1020.4
20190118180702 45 156 1.0 5.0 0.00 0.00 0.00 74 1020.2
20190118180202 46 180 1.0 5.0 0.00 0.00 0.00 74 1019.9
20190118175701 46 180 1.0 5.0 0.00 0.00 0.00 73 1019.7
20190118175202 46 135 1.0 3.0 0.00 0.00 0.00 73 1019.4
20190118174702 46 135 0.0 3.0 0.00 0.00 0.00 72 1019.0
20190118174201 46 135 1.0 3.0 0.00 0.00 0.00 71 1018.6
20190118173701 47 135 0.0 3.0 0.00 0.00 0.00 70 1018.2
20190118173202 47 135 1.0 5.0 0.00 0.00 0.00 70 1017.7
20190118172702 47 180 1.0 5.0 0.00 0.00 0.00 69 1017.6
20190118172202 48 180 2.0 5.0 0.00 0.00 0.00 69 1017.3
20190118171702 48 158 2.0 6.0 0.00 0.00 0.00 69 1017.0
20190118171200 48 180 2.0 6.0 0.00 0.00 0.00 68 1016.6
20190118170702 48 180 2.0 5.0 0.00 0.00 0.00 66 1016.3
20190118170201 48 180 2.0 5.0 0.00 0.00 0.00 66 1016.0
20190118165702 48 180 2.0 7.0 0.00 0.00 0.00 66 1015.6
20190118165205 49 180 2.0 7.0 0.00 0.00 0.00 67 1015.1
20190118164702 49 180 3.0 7.0 0.00 0.00 0.00 67 1014.6
20190118164202 49 180 3.0 6.0 0.00 0.00 0.00 67 1014.4
20190118163702 49 206 3.0 6.0 0.00 0.00 0.00 67 1014.3
20190118163201 49 192 3.0 7.0 0.00 0.00 0.00 68 1014.6
20190118162702 49 204 3.0 7.0 0.00 0.00 0.00 69 1014.8
20190118162201 49 180 4.0 7.0 0.00 0.00 0.00 71 1014.9
20190118161702 49 180 3.0 7.0 0.00 0.00 0.00 71 1015.0
20190118161201 49 169 3.0 7.0 0.00 0.00 0.00 72 1015.0
20190118160701 49 204 3.0 7.0 0.00 0.00 0.00 73 1015.1
20190118160202 49 161 4.0 6.0 0.00 0.00 0.00 73 1014.9
20190118155702 50 225 3.0 6.0 0.00 0.00 0.00 74 1015.0
20190118155202 50 201 3.0 7.0 0.00 0.00 0.00 75 1015.2
20190118154702 49 225 3.0 7.0 0.00 0.00 0.00 76 1015.8
20190118154202 49 180 3.0 6.0 0.00 0.00 0.00 77 1016.2
20190118153702 49 201 2.0 6.0 0.00 0.00 0.00 77 1016.9
20190118153202 49 180 2.0 6.0 0.00 0.00 0.00 76 1017.7
20190118152702 49 213 1.0 3.0 0.00 0.00 0.00 74 1018.6
20190118152201 50 180 1.0 3.0 0.00 0.00 0.00 74 1019.3
20190118151702 50 158 1.0 3.0 0.00 0.00 0.00 72 1019.6
20190118151202 50 180 1.0 3.0 0.00 0.00 0.00 72 1019.6
20190118150701 51 207 0.0 1.0 0.00 0.00 0.00 69 1019.7
20190118150201 51 225 0.0 1.0 0.00 0.00 0.00 69 1019.7
20190118145701 51 225 0.0 2.0 0.00 0.00 0.00 68 1019.7
20190118145202 52 246 0.0 5.0 0.00 0.00 0.00 68 1019.6
20190118144702 52 160 1.0 5.0 0.00 0.00 0.00 67 1019.7
20190118144202 52 180 1.0 5.0 0.00 0.00 0.00 65 1019.6
20190118143701 52 180 1.0 5.0 0.00 0.00 0.00 65 1019.4
20190118143201 52 203 1.0 6.0 0.00 0.00 0.00 64 1019.1
20190118142701 53 225 2.0 7.0 0.00 0.00 0.00 63 1018.7
20190118142202 53 181 3.0 7.0 0.00 0.00 0.00 62 1018.4
20190118141701 53 180 2.0 7.0 0.00 0.00 0.00 61 1018.1
20190118141201 53 225 3.0 7.0 0.00 0.00 0.00 61 1017.7
20190118140701 53 149 2.0 8.0 0.00 0.00 0.00 60 1017.1
20190118140201 54 90 2.0 9.0 0.00 0.00 0.00 58 1016.7
20190118135702 55 176 5.0 9.0 0.00 0.00 0.00 57 1016.1
20190118135201 55 159 3.0 7.0 0.00 0.00 0.00 56 1015.4
20190118134701 55 122 2.0 9.0 0.00 0.00 0.00 56 1014.9
20190118134201 55 198 5.0 9.0 0.00 0.00 0.00 54 1014.5
20190118133702 55 225 3.0 9.0 0.00 0.00 0.00 54 1014.2
20190118133202 56 180 4.0 9.0 0.00 0.00 0.00 54 1013.7
20190118132703 56 131 3.0 13.0 0.00 0.00 0.00 54 1013.8
20190118132202 55 225 6.0 13.0 0.00 0.00 0.00 54 1014.1
20190118131701 55 250 6.0 13.0 0.00 0.00 0.00 55 1014.5
20190118131202 55 159 3.0 13.0 0.00 0.00 0.00 56 1014.2
20190118130702 55 119 4.0 13.0 0.00 0.00 0.00 57 1013.9
20190118130202 55 225 9.0 13.0 0.00 0.00 0.00 57 1014.0
20190118125702 55 209 6.0 13.0 0.00 0.00 0.00 55 1013.5
20190118125202 55 203 5.0 13.0 0.00 0.00 0.00 55 1013.4
20190118124702 55 225 7.0 13.0 0.00 0.00 0.00 58 1013.9
20190118124202 54 199 3.0 10.0 0.00 0.00 0.00 59 1014.5
20190118123701 54 204 6.0 10.0 0.00 0.00 0.00 59 1014.7
20190118123202 53 171 6.0 10.0 0.00 0.00 0.00 60 1014.7
20190118122702 53 225 6.0 8.0 0.00 0.00 0.00 60 1014.0
20190118122202 53 149 3.0 13.0 0.00 0.00 0.00 60 1013.4
20190118121702 54 150 5.0 14.0 0.00 0.00 0.00 59 1012.5
20190118121202 55 210 6.0 14.0 0.00 0.00 0.00 57 1012.2
20190118120702 55 225 5.0 14.0 0.00 0.00 0.00 57 1012.3
20190118120202 55 177 4.0 9.0 0.00 0.00 0.00 58 1012.6
20190118115702 54 180 6.0 9.0 0.00 0.00 0.00 57 1012.9
20190118115202 55 204 3.0 12.0 0.00 0.00 0.00 59 1013.2
20190118114702 54 135 3.0 12.0 0.00 0.00 0.00 60 1013.8
20190118114202 54 225 4.0 12.0 0.00 0.00 0.00 62 1014.1
20190118113702 52 199 4.0 7.0 0.00 0.00 0.00 64 1014.8
20190118113202 52 251 3.0 10.0 0.00 0.00 0.00 65 1014.7
20190118112702 52 180 3.0 10.0 0.00 0.00 0.00 64 1014.5
20190118112202 52 180 6.0 10.0 0.00 0.00 0.00 65 1014.3
20190118111702 52 167 4.0 10.0 0.00 0.00 0.00 67 1014.6
20190118111202 51 156 5.0 13.0 0.00 0.00 0.00 68 1014.8
20190118110702 52 225 6.0 13.0 0.00 0.00 0.00 64 1014.7
20190118110203 52 225 4.0 10.0 0.00 0.00 0.00 64 1014.7
20190118105702 52 178 6.0 10.0 0.00 0.00 0.00 62 1014.8
20190118105203 54 225 5.0 12.0 0.00 0.00 0.00 61 1014.7
20190118104702 54 163 4.0 12.0 0.00 0.00 0.00 61 1015.0
20190118104202 54 225 5.0 13.0 0.00 0.00 0.00 63 1015.4
20190118103701 52 180 6.0 13.0 0.00 0.00 0.00 64 1015.7
20190118103202 52 120 7.0 13.0 0.00 0.00 0.00 64 1015.9
20190118102702 52 201 6.0 10.0 0.00 0.00 0.00 64 1016.0
20190118102202 52 198 6.0 13.0 0.00 0.00 0.00 65 1016.1
20190118101702 52 201 5.0 13.0 0.00 0.00 0.00 66 1016.3
20190118101202 52 180 5.0 12.0 0.00 0.00 0.00 66 1016.4
20190118100702 52 154 5.0 10.0 0.00 0.00 0.00 66 1016.6
20190118100203 52 203 3.0 10.0 0.00 0.00 0.00 66 1016.7
20190118095702 52 180 5.0 10.0 0.00 0.00 0.00 68 1016.7
20190118095202 51 225 5.0 10.0 0.00 0.00 0.00 70 1016.6
20190118094702 51 211 6.0 10.0 0.00 0.00 0.00 70 1016.7
20190118094203 51 180 7.0 10.0 0.00 0.00 0.00 68 1016.7
20190118093702 51 194 5.0 13.0 0.00 0.00 0.00 71 1016.6
20190118093202 50 90 5.0 13.0 0.00 0.00 0.00 70 1016.6
20190118092702 50 227 6.0 10.0 0.00 0.00 0.00 69 1016.6
20190118092202 51 256 5.0 10.0 0.00 0.00 0.00 67 1016.7
20190118091702 51 207 5.0 10.0 0.00 0.00 0.00 68 1016.9
20190118091202 51 200 3.0 8.0 0.00 0.00 0.00 67 1017.1
20190118090703 52 180 3.0 8.0 0.00 0.00 0.00 65 1017.2
20190118090202 52 180 5.0 8.0 0.00 0.00 0.00 67 1017.1
20190118085705 52 260 3.0 8.0 0.00 0.00 0.00 67 1017.1
20190118085205 52 181 5.0 9.0 0.00 0.00 0.00 68 1017.0
20190118084702 51 139 3.0 9.0 0.00 0.00 0.00 70 1017.2
20190118084202 51 110 5.0 9.0 0.00 0.00 0.00 71 1017.4